Starlink 36211

operational
NORAD ID: 67218 Int'l Des: 2025-304 Owner: SPXS Country: US Constellation: starlink
LEOCIRCULAR

Starlink 36211について

説明を読み込み中...

リアルタイム位置

3D地球を読み込み中...

次回通過

高度履歴

Altitude vs Time

uPlot chart will show altitude changes over time

軌道要素

1 67218C 25304AC 25352.76715278 .00723800 00000+0 98584-3 0 3527
2 67218 69.9978 31.2723 0009386 252.0315 236.4266 16.05226714 10
Epoch: Dec 18, 2025 • Age: 56 hours

現在のステータス

高度 265.1 km
速度 7.75 km/s
衛星直下点 51.60°N, 26°W
打ち上げ日 Dec 17, 2025
運用期間 2 days
タイプ internet

技術仕様

分類 Payload
質量 575.00 kg
乾燥質量 530.00 kg
総質量 575.00 kg
長さ 0.30 m
直径 4.10 m
スパン 29.00 m
形状 Box + pan
製造者 SPXS
バスタイプ Starlink V2MO
フェーズステータス In Orbit
所有者/国 SPXS/US

大規模コンステレーション

Loading constellations...